格洛纳斯M-712 COSMOS 2413 [GLONASS-M]

导读

COSMOS 2411(又称GLONASS,即宇宙2411)是由独联体(CIS)发射的格洛纳斯导航卫星,是格洛纳斯卫星导航系统组网卫星之一,于2004年12月26日发射入轨。该卫星属于Uragan-M系列,承担全球导航定位服务,助力格洛纳斯系统恢复组网,为高纬度地区提供更优覆盖,延续俄罗斯全球卫星导航能力建设。

基本信息
目录编号:
28509
目录名称:
COSMOS 2411 (GLONASS)
国际标识:
2004-053B
轨道中心:
EARTH
卫星名称:
格洛纳斯M-712
卫星全名:
格洛纳斯M-712 COSMOS 2413 [GLONASS-M]
卫星状态:
在轨 (已飞行7883 天)
发射日期:
2004-12-26 UTC
国别 :
俄罗斯(独联体) (CIS)
星等 :
--
轨道信息
数据来源 国际轨道数据
星历时间: 2026-07-23T23:03:34+0800
4天前
查看轨道信息
半长轴: 25508.432km
偏心率: 0.0003097
轨道倾角: 64.234°
近地点辐角 243.875°
升交点赤经 58.905°
平近点角 294.144°
近地点: 19122.395km
远地点: 19138.195km
周期: 675.749分钟
每日圈数: 2.130969
详细信息
平衡模式:
三轴稳定
覆盖范围:
全球
运营商:
列舍特涅夫卫星信息系统
运营商所在国:
俄罗斯
制造商(研发单位):
列舍特涅夫卫星信息系统
制造商所在国:
俄罗斯
使用方式:
暂无
卫星简介
格洛纳斯(GLONASS )是苏联/俄罗斯研制卫星导航系统。标准配置为24颗卫星,其中18颗卫星就能保证该系统为俄罗斯境内用户提供全部服务。该卫星已退役。
2D轨道图
3D轨道图
轨道高度分析图
轨道倾角分析图
轨道综合分析图
查看轨道综合分析图